Smith Lake Weather Center

Moon Phase Calendar



Smith Lake Water Level
Online Cameras

 


      

Current Conditions in Good Hope
6/14/2021 8:47:45 AM

79°F
Feels Like 79
Clear
Humidity
69%
Pressure
29.94"
Wind
3.5 mph (N)
Dew Point
68°F
UV Index
3/10 (Moderate)
Visibility
6 mi

Hourly Forecast

Date & Time Mon, Jun 14
8:00 AM
Mon, Jun 14
9:00 AM
Mon, Jun 14
10:00 AM
Mon, Jun 14
11:00 AM
Mon, Jun 14
12:00 PM
Mon, Jun 14
1:00 PM
Mon, Jun 14
2:00 PM
Mon, Jun 14
3:00 PM
Mon, Jun 14
4:00 PM
Mon, Jun 14
5:00 PM
Mon, Jun 14
6:00 PM
Mon, Jun 14
7:00 PM
Mon, Jun 14
8:00 PM
Mon, Jun 14
9:00 PM
Mon, Jun 14
10:00 PM
Mon, Jun 14
11:00 PM
Tue, Jun 15
12:00 AM
Tue, Jun 15
1:00 AM
Tue, Jun 15
2:00 AM
Tue, Jun 15
3:00 AM
Tue, Jun 15
4:00 AM
Tue, Jun 15
5:00 AM
Tue, Jun 15
6:00 AM
Tue, Jun 15
7:00 AM
Tue, Jun 15
8:00 AM
Tue, Jun 15
9:00 AM
Tue, Jun 15
10:00 AM
Tue, Jun 15
11:00 AM
Tue, Jun 15
12:00 PM
Tue, Jun 15
1:00 PM
Tue, Jun 15
2:00 PM
Tue, Jun 15
3:00 PM
Tue, Jun 15
4:00 PM
Tue, Jun 15
5:00 PM
Tue, Jun 15
6:00 PM
Tue, Jun 15
7:00 PM
Tue, Jun 15
8:00 PM
Tue, Jun 15
9:00 PM
Tue, Jun 15
10:00 PM
Tue, Jun 15
11:00 PM
Wed, Jun 16
12:00 AM
Wed, Jun 16
1:00 AM
Wed, Jun 16
2:00 AM
Wed, Jun 16
3:00 AM
Wed, Jun 16
4:00 AM
Wed, Jun 16
5:00 AM
Wed, Jun 16
6:00 AM
Wed, Jun 16
7:00 AM
Condition
Clear

Clear

Clear

Clear

Rain

Clear

Clear

Clear

Clear

Clear

Clear

Clear

Clear

Clear

Clear

Clear

Clear

Clear

Clear

Clear

Clouds

Clouds

Clouds

Clouds

Clouds

Clouds

Clouds

Clouds

Clouds

Clouds

Clear

Clear

Clear

Clear

Clear

Clear

Clear

Clear

Clear

Clear

Clear

Clear

Clear

Clear

Clear

Clear

Clear

Clear
Temperature 79°F79°F80°F82°F85°F88°F91°F91°F91°F90°F88°F83°F77°F75°F74°F72°F71°F70°F69°F68°F68°F68°F68°F71°F75°F77°F80°F82°F83°F83°F84°F83°F82°F81°F79°F75°F70°F67°F66°F64°F64°F63°F62°F61°F60°F60°F60°F64°F
Feels Like 79°F79°F83°F86°F89°F93°F96°F96°F95°F94°F93°F88°F79°F77°F75°F73°F71°F70°F69°F68°F68°F68°F68°F72°F76°F78°F80°F82°F83°F83°F83°F83°F82°F81°F79°F75°F70°F67°F66°F65°F64°F63°F62°F61°F60°F60°F60°F64°F
Cloudiness 0%0%0%0%0%2%8%7%4%4%3%3%0%1%0%0%1%2%7%7%18%38%46%46%69%85%90%92%94%92%3%2%1%1%1%1%0%0%0%0%0%0%0%0%0%0%0%0%
Visibility 6 mi6 mi6 mi6 mi6 mi6 mi6 mi6 mi6 mi6 mi6 mi6 mi6 mi6 mi6 mi6 mi6 mi6 mi6 mi6 mi6 mi6 mi6 mi6 mi6 mi6 mi6 mi6 mi6 mi6 mi6 mi6 mi6 mi6 mi6 mi6 mi6 mi6 mi6 mi6 mi6 mi6 mi6 mi6 mi6 mi6 mi6 mi6 mi
Precipitation 0%0%12%22%34%38%12%0%0%0%0%0%0%0%0%0%0%0%0%0%0%0%0%0%0%0%0%0%0%0%0%0%0%0%0%0%0%0%0%0%0%0%0%0%0%0%0%0%
Humidity 71%69%67%64%59%53%48%47%45%46%56%69%81%83%81%82%84%86%86%86%86%87%90%86%76%64%56%49%43%40%39%39%41%45%55%65%75%79%82%85%86%87%88%89%90%91%91%82%
Dew Point 68°F68°F68°F69°F69°F69°F69°F68°F67°F67°F70°F71°F71°F70°F68°F66°F66°F65°F64°F63°F63°F63°F64°F67°F67°F64°F63°F60°F58°F57°F56°F56°F56°F58°F61°F62°F61°F60°F60°F60°F59°F58°F58°F57°F57°F57°F57°F58°F
Pressure 29.94"29.94"29.94"29.94"29.91"29.91"29.88"29.88"29.88"29.85"29.85"29.88"29.88"29.91"29.91"29.91"29.91"29.91"29.94"29.94"29.94"29.94"29.94"29.97"29.97"30"29.97"30"30"30"30"29.97"29.97"29.97"29.97"30"30"30"30"30.03"30.03"30.03"30.03"30.03"30.03"30.03"30.03"30.06"
Wind Speed 2.6 mph3.5 mph4.1 mph5.5 mph7.3 mph8.1 mph8.6 mph8.3 mph7.8 mph8.2 mph7.8 mph6.8 mph5.8 mph5.7 mph5.8 mph5.7 mph5.4 mph5.2 mph4.4 mph4.1 mph4.3 mph4.3 mph4.7 mph6.3 mph8.6 mph8.7 mph8.8 mph9.6 mph10.4 mph10.9 mph10.9 mph10.5 mph10.7 mph10 mph8.7 mph8.2 mph6.2 mph5.5 mph5.4 mph5.1 mph5.1 mph5.1 mph5.3 mph5.3 mph5.5 mph5.5 mph5 mph5.4 mph
Wind
Direction
12°
NNE

N
353°
N
350°
N
358°
N

N
12°
NNE
18°
NNE
14°
NNE

N

N
354°
N
354°
N

N

N

N

N

N

N
359°
N
358°
N
356°
N
351°
N
359°
N

N

N

N

N

N

N

N

N

N

N

N

N

N
17°
NNE
21°
NNE
15°
NNE

N
358°
N

N

N

N

N
357°
N

N

Daily Forecast

Date High Low Precip. Humidity
Today
Jun 14

Rain
91 °F
69 °F
87%
59%
Tuesday
Jun 15

Clouds
84 °F
64 °F
0%
43%
Wednesday
Jun 16

Clear
82 °F
60 °F
0%
42%
Thursday
Jun 17

Clear
83 °F
61 °F
0%
39%
Friday
Jun 18

Clouds
91 °F
62 °F
0%
35%
Saturday
Jun 19

Rain
70 °F
68 °F
100%
98%
Sunday
Jun 20

Rain
78 °F
68 °F
100%
92%
Monday
Jun 21

Rain
88 °F
71 °F
59%
68%
Tuesday
Jun 22

Rain
84 °F
71 °F
100%
73%
Wednesday
Jun 23

Rain
83 °F
70 °F
100%
75%
Thursday
Jun 24

Rain
86 °F
70 °F
100%
87%
Friday
Jun 25

Rain
87 °F
71 °F
100%
70%
Saturday
Jun 26

Rain
93 °F
72 °F
57%
51%
Sunday
Jun 27

Rain
93 °F
72 °F
85%
47%
Monday
Jun 28

Rain
83 °F
71 °F
100%
79%
Tuesday
Jun 29

Rain
91 °F
70 °F
48%
56%

Temperature 8-14 Day Outlook



Precipitation 8-14 Day Outlook




Quick Links
Smith Lake News
Smith Lake Photos
Smith Lake Videos




About Us
Contact Us
Site Map
Search Site
Advertise With Us
   
www.SmithLake.info
THE SMITH LAKE WEBSITE

Copyright 2021, Lakes Online
Privacy    |    Legal